Weather History for Marathon, FL

Change the Weather History Date:

Monday, June 17, 2013

  Actual Average Record
Temperature  
Mean Temperature 88 °F 85 °F  
Max Temperature 91 °F 91 °F 93 °F (1997)
Min Temperature 84 °F 79 °F 72 °F (2001)
Degree Days  
Heating Degree Days 0 0  
Month to date heating degree days 0 0  
Since 1 June heating degree days 0 0  
Since 1 July heating degree days 36 81  
Cooling Degree Days 23 20  
Month to date cooling degree days 323 335  
Year to date cooling degree days 2153 1878  
Since 1 June cooling degree days 323 335  
Growing Degree Days 38 (Base 50)    
Moisture  
Dew Point 74 °F    
Average Humidity 65    
Maximum Humidity 70    
Minimum Humidity 60    
Precipitation  
Precipitation T in 0.20 in 0.89 in (2001)
Month to date precipitation 9.01 2.98  
Year to date precipitation 28.77 14.92  
Snow  
Snow 0.00 in - - ()
Month to date snowfall 0.0  
Since 1 June snowfall 0.0  
Since 1 July snowfall 0.0  
Snow Depth 0.00 in    
Sea Level Pressure  
Sea Level Pressure 30.04 in    
Wind  
Wind Speed 8 mph (ESE)    
Max Wind Speed 16 mph    
Max Gust Speed 20 mph    
Visibility 10 miles    
Events Rain    
T = Trace of Precipitation, MM = Missing Value Source: NWS Daily Summary

Daily Weather History Graph

Daily Weather History Graph

Search for Another Location

Airport:

Trip Planner

Search our weather history database for the weather conditions in past years. The results will help you decide how hot, cold, wet, or windy it might be!

Date:

Astronomy

Jun. 17, 2013 Rise Set
Actual Time 6:35 AM EDT 8:15 PM EDT
Civil Twilight 6:09 AM EDT 8:41 PM EDT
Nautical Twilight 5:38 AM EDT 9:11 PM EDT
Astronomical Twilight 5:06 AM EDT 9:44 PM EDT
Moon 2:22 PM EDT (6/17) 1:36 AM EDT (6/17)
Length of Visible Light 14h 31m
Length of Day
13h 40m
First Quarter, 60% of the Moon is Illuminated
Jun 17
First Quarter
Jun 23
Full
Jun 30
Last Quarter
Jul 8
New
Jul 15
First Quarter

Hourly Weather History & Observations

Time (EDT) Temp. Heat Index Dew Point Humidity Pressure Visibility Wind Dir Wind Speed Gust Speed Precip Events Conditions
12:53 AM 84.9 °F 91.4 °F 73.0 °F 67% 30.06 in 10.0 mi ESE 6.9 mph - N/A   Clear
1:53 AM 84.9 °F 91.4 °F 73.0 °F 67% 30.05 in 10.0 mi ESE 5.8 mph - N/A   Clear
2:53 AM 84.9 °F 91.4 °F 73.0 °F 67% 30.02 in 10.0 mi SE 8.1 mph 17.3 mph N/A   Clear
3:53 AM 84.9 °F 91.4 °F 73.0 °F 67% 30.00 in 10.0 mi SE 8.1 mph - N/A   Partly Cloudy
4:53 AM 84.0 °F 90.2 °F 73.0 °F 69% 30.00 in 10.0 mi ESE 5.8 mph - N/A   Partly Cloudy
5:53 AM 84.9 °F 92.1 °F 73.9 °F 69% 30.01 in 10.0 mi ESE 5.8 mph - N/A   Scattered Clouds
6:53 AM 84.9 °F 92.1 °F 73.9 °F 69% 30.01 in 10.0 mi ESE 5.8 mph - N/A   Mostly Cloudy
7:15 AM 84.2 °F 90.9 °F 73.4 °F 70% 30.02 in 10.0 mi ESE 6.9 mph - N/A   Scattered Clouds
7:53 AM 84.9 °F 92.1 °F 73.9 °F 69% 30.04 in 10.0 mi East 5.8 mph - N/A   Partly Cloudy
8:30 AM 86.0 °F 93.4 °F 73.4 °F 66% 30.05 in 10.0 mi East 5.8 mph - N/A   Mostly Cloudy
8:38 AM 86.0 °F 93.4 °F 73.4 °F 66% 30.05 in 10.0 mi ENE 6.9 mph - N/A   Partly Cloudy
8:53 AM 86.0 °F 93.8 °F 73.9 °F 67% 30.05 in 10.0 mi East 6.9 mph - N/A   Partly Cloudy
9:26 AM 87.8 °F 97.6 °F 75.2 °F 66% 30.05 in 10.0 mi East 6.9 mph - N/A   Mostly Cloudy
9:53 AM 88.0 °F 97.5 °F 75.0 °F 65% 30.05 in 10.0 mi East 9.2 mph - N/A   Scattered Clouds
10:53 AM 88.0 °F 97.5 °F 75.0 °F 65% 30.05 in 10.0 mi ESE 8.1 mph - N/A   Partly Cloudy
11:53 AM 90.0 °F 100.2 °F 75.0 °F 61% 30.06 in 10.0 mi East 6.9 mph - N/A   Scattered Clouds
12:53 PM 90.0 °F 100.2 °F 75.0 °F 61% 30.06 in 10.0 mi ESE 8.1 mph - N/A   Clear
1:53 PM 88.0 °F 97.5 °F 75.0 °F 65% 30.05 in 10.0 mi East 9.2 mph - N/A   Mostly Cloudy
2:08 PM 89.6 °F 99.8 °F 75.2 °F 62% 30.04 in 10.0 mi ESE 10.4 mph 16.1 mph N/A   Mostly Cloudy
2:28 PM 89.6 °F 99.8 °F 75.2 °F 62% 30.05 in 10.0 mi ESE 6.9 mph - N/A   Scattered Clouds
2:53 PM 91.0 °F 101.6 °F 75.0 °F 59% 30.04 in 10.0 mi ESE 8.1 mph - N/A   Partly Cloudy
3:37 PM 89.6 °F 99.8 °F 75.2 °F 62% 30.03 in 9.0 mi ESE 9.2 mph 18.4 mph 0.00 in Rain Light Rain
3:45 PM 89.6 °F 99.8 °F 75.2 °F 62% 30.03 in 9.0 mi East 9.2 mph - 0.00 in Rain Light Rain
3:53 PM 90.0 °F 101.3 °F 75.9 °F 63% 30.03 in 10.0 mi East 6.9 mph 17.3 mph 0.00 in   Scattered Clouds
4:53 PM 89.1 °F 100.2 °F 75.9 °F 65% 30.02 in 10.0 mi East 8.1 mph 17.3 mph N/A   Scattered Clouds
5:53 PM 89.1 °F 99.1 °F 75.0 °F 63% 30.02 in 10.0 mi ESE 9.2 mph 16.1 mph N/A   Partly Cloudy
6:53 PM 88.0 °F 97.5 °F 75.0 °F 65% 30.02 in 10.0 mi East 9.2 mph - N/A   Partly Cloudy
7:53 PM 86.0 °F 93.8 °F 73.9 °F 67% 30.03 in 10.0 mi East 8.1 mph - N/A   Partly Cloudy
8:53 PM 86.0 °F 95.1 °F 75.0 °F 70% 30.03 in 10.0 mi ESE 9.2 mph - N/A   Partly Cloudy
9:53 PM 86.0 °F 93.8 °F 73.9 °F 67% 30.04 in 10.0 mi ESE 8.1 mph - N/A   Clear
10:53 PM 86.0 °F 95.1 °F 75.0 °F 70% 30.06 in 10.0 mi ESE 6.9 mph - N/A   Partly Cloudy
11:53 PM 86.0 °F 93.8 °F 73.9 °F 67% 30.05 in 10.0 mi ESE 9.2 mph - N/A   Clear